• In Czech Republic
  • List of Countries
  • For 7 days
  • Water Temperature
  • Satellite Maps
  • Weather Map
  • Weather Widgets
  • user-avatar
    Login

    Hourly Weather Ondjiwa

    Today, 21 November, Tuesday

    Time Temperature Precipitation Wind Pressure Humidity
    00:00 +28°C° 0 mm 3 mps 667 mmHg 24%
    01:00 +27°C° 0 mm 3 mps 668 mmHg 27%
    02:00 +26°C° 0 mm 3 mps 667 mmHg 28%
    03:00 +25°C° 0 mm 2 mps 667 mmHg 29%
    04:00 +24°C° 0 mm 2 mps 667 mmHg 30%
    05:00 +25°C° 0 mm 2 mps 667 mmHg 27%
    06:00 +26°C° 0 mm 3 mps 668 mmHg 25%
    07:00 +28°C° 0 mm 3 mps 669 mmHg 22%
    08:00 +30°C° 0 mm 3 mps 669 mmHg 20%
    09:00 +31°C° 0 mm 3 mps 669 mmHg 17%
    10:00 +34°C° 0 mm 3 mps 669 mmHg 14%
    11:00 +35°C° 0 mm 3 mps 669 mmHg 14%
    12:00 +36°C° 0 mm 2 mps 668 mmHg 13%
    13:00 +36°C° 0 mm 2 mps 668 mmHg 12%
    14:00 +36°C° 0 mm 2 mps 667 mmHg 13%
    15:00 +36°C° 0 mm 2 mps 667 mmHg 13%
    16:00 +36°C° 0 mm 2 mps 666 mmHg 13%
    17:00 +35°C° 0 mm 2 mps 666 mmHg 14%
    18:00 +34°C° 0 mm 2 mps 666 mmHg 15%
    19:00 +32°C° 0 mm 1 mps 666 mmHg 16%
    20:00 +31°C° 0 mm 2 mps 666 mmHg 17%
    21:00 +31°C° 0 mm 3 mps 667 mmHg 18%
    22:00 +30°C° 0 mm 4 mps 667 mmHg 19%
    23:00 +30°C° 0 mm 4 mps 667 mmHg 21%

    Tomorrow, 22 November, Wednesday

    Time Temperature Precipitation Wind Pressure Humidity
    00:00 +29°C° 0 mm 3 mps 667 mmHg 23%
    01:00 +28°C° 0 mm 3 mps 666 mmHg 25%
    02:00 +27°C° 0 mm 3 mps 666 mmHg 26%
    03:00 +27°C° 0 mm 3 mps 666 mmHg 27%
    04:00 +26°C° 0 mm 2 mps 666 mmHg 28%
    05:00 +27°C° 0 mm 2 mps 667 mmHg 28%
    06:00 +27°C° 0 mm 2 mps 667 mmHg 27%
    07:00 +28°C° 0 mm 3 mps 668 mmHg 27%
    08:00 +30°C° 0 mm 3 mps 668 mmHg 25%
    09:00 +31°C° 0 mm 3 mps 669 mmHg 23%
    10:00 +34°C° 0 mm 3 mps 669 mmHg 21%
    11:00 +35°C° 0 mm 3 mps 668 mmHg 19%
    12:00 +36°C° 0 mm 3 mps 668 mmHg 18%
    13:00 +37°C° 0 mm 3 mps 667 mmHg 16%
    14:00 +37°C° 0 mm 3 mps 666 mmHg 16%
    15:00 +37°C° 0 mm 3 mps 666 mmHg 16%
    16:00 +37°C° 0 mm 3 mps 665 mmHg 16%
    17:00 +35°C° 0 mm 3 mps 665 mmHg 17%
    18:00 +34°C° 0 mm 2 mps 665 mmHg 19%
    19:00 +32°C° 0 mm 2 mps 665 mmHg 20%
    20:00 +32°C° 0 mm 2 mps 666 mmHg 20%
    21:00 +31°C° 0 mm 2 mps 666 mmHg 21%
    22:00 +31°C° 0 mm 2 mps 667 mmHg 21%
    23:00 +30°C° 0 mm 3 mps 666 mmHg 22%

    Day after tomorrow, 23 November, Thursday

    Time Temperature Precipitation Wind Pressure Humidity
    00:00 +30°C° 0 mm 3 mps 666 mmHg 23%
    01:00 +29°C° 0 mm 4 mps 666 mmHg 24%
    02:00 +28°C° 0 mm 4 mps 666 mmHg 25%
    03:00 +28°C° 0 mm 4 mps 665 mmHg 25%
    04:00 +27°C° 0 mm 4 mps 665 mmHg 26%
    05:00 +28°C° 0 mm 4 mps 666 mmHg 25%
    06:00 +28°C° 0 mm 4 mps 666 mmHg 24%
    07:00 +29°C° 0 mm 4 mps 667 mmHg 23%
    08:00 +32°C° 0 mm 4 mps 667 mmHg 21%
    09:00 +34°C° 0 mm 4 mps 668 mmHg 20%
    10:00 +35°C° 0 mm 4 mps 668 mmHg 18%
    11:00 +36°C° 0 mm 4 mps 667 mmHg 18%
    12:00 +36°C° 0 mm 4 mps 666 mmHg 19%
    13:00 +36°C° 0 mm 4 mps 665 mmHg 19%
    14:00 +36°C° 0 mm 4 mps 665 mmHg 19%
    15:00 +36°C° 0 mm 3 mps 664 mmHg 20%
    16:00 +36°C° 0 mm 3 mps 664 mmHg 20%
    17:00 +35°C° 0 mm 3 mps 664 mmHg 22%
    18:00 +33°C° 0 mm 3 mps 664 mmHg 25%
    19:00 +31°C° 0 mm 3 mps 665 mmHg 27%
    20:00 +31°C° 0 mm 3 mps 665 mmHg 28%
    21:00 +30°C° 0 mm 3 mps 666 mmHg 29%
    22:00 +30°C° 0 mm 3 mps 666 mmHg 31%
    23:00 +29°C° 0 mm 3 mps 666 mmHg 32%

    24 November, Friday

    Time Temperature Precipitation Wind Pressure Humidity
    00:00 +29°C° 0 mm 3 mps 666 mmHg 34%
    01:00 +28°C° 0 mm 3 mps 666 mmHg 35%
    02:00 +27°C° 0 mm 3 mps 666 mmHg 35%
    03:00 +27°C° 0 mm 3 mps 666 mmHg 35%
    04:00 +26°C° 0 mm 3 mps 666 mmHg 34%
    05:00 +27°C° 0 mm 3 mps 666 mmHg 33%
    06:00 +27°C° 0 mm 3 mps 667 mmHg 31%
    07:00 +27°C° 0 mm 3 mps 667 mmHg 30%
    08:00 +30°C° 0 mm 3 mps 668 mmHg 27%
    09:00 +32°C° 0 mm 2 mps 668 mmHg 24%
    10:00 +35°C° 0 mm 2 mps 668 mmHg 21%
    11:00 +36°C° 0 mm 2 mps 668 mmHg 20%
    12:00 +38°C° 0 mm 2 mps 667 mmHg 19%
    13:00 +39°C° 0 mm 2 mps 667 mmHg 18%
    14:00 +38°C° 0 mm 2 mps 666 mmHg 19%
    15:00 +37°C° 0 mm 2 mps 665 mmHg 21%
    16:00 +36°C° 0 mm 3 mps 665 mmHg 22%
    17:00 +35°C° 0 mm 2 mps 665 mmHg 24%
    18:00 +34°C° 0 mm 2 mps 665 mmHg 27%
    19:00 +32°C° 0 mm 2 mps 665 mmHg 29%
    20:00 +31°C° 0.3 mm 2 mps 666 mmHg 33%
    21:00 +30°C° 0.3 mm 2 mps 666 mmHg 37%
    22:00 +28°C° 0.3 mm 1 mps 666 mmHg 41%
    23:00 +28°C° 0.2 mm 1 mps 666 mmHg 43%

    25 November, Saturday

    Time Temperature Precipitation Wind Pressure Humidity
    00:00 +27°C° 0.2 mm 1 mps 666 mmHg 45%
    01:00 +26°C° 0.2 mm 1 mps 665 mmHg 47%
    02:00 +26°C° 0 mm 2 mps 665 mmHg 48%
    03:00 +25°C° 0 mm 2 mps 665 mmHg 48%
    04:00 +25°C° 0 mm 2 mps 665 mmHg 49%
    05:00 +26°C° 0 mm 2 mps 666 mmHg 46%
    06:00 +27°C° 0 mm 2 mps 667 mmHg 44%
    07:00 +27°C° 0 mm 2 mps 667 mmHg 41%
    08:00 +30°C° 0 mm 2 mps 667 mmHg 36%
    09:00 +32°C° 0 mm 2 mps 668 mmHg 31%
    10:00 +36°C° 0 mm 2 mps 668 mmHg 26%
    11:00 +36°C° 0 mm 2 mps 667 mmHg 25%
    12:00 +36°C° 0 mm 2 mps 666 mmHg 24%
    13:00 +37°C° 0 mm 3 mps 666 mmHg 22%
    14:00 +37°C° 0 mm 2 mps 665 mmHg 22%
    15:00 +37°C° 0 mm 2 mps 665 mmHg 21%
    16:00 +37°C° 0 mm 2 mps 664 mmHg 20%
    17:00 +36°C° 0 mm 2 mps 665 mmHg 23%
    18:00 +35°C° 0 mm 2 mps 665 mmHg 25%
    19:00 +32°C° 0 mm 2 mps 665 mmHg 27%
    20:00 +31°C° 0 mm 2 mps 665 mmHg 30%
    21:00 +30°C° 0 mm 2 mps 666 mmHg 33%
    22:00 +30°C° 0 mm 3 mps 666 mmHg 36%
    23:00 +29°C° 0 mm 3 mps 666 mmHg 33%

    26 November, Sunday

    Time Temperature Precipitation Wind Pressure Humidity
    00:00 +29°C° 0 mm 3 mps 666 mmHg 30%
    01:00 +28°C° 0 mm 3 mps 666 mmHg 27%
    02:00 +27°C° 0 mm 3 mps 666 mmHg 27%
    03:00 +26°C° 0 mm 3 mps 666 mmHg 27%
    04:00 +25°C° 0 mm 3 mps 666 mmHg 28%
    05:00 +26°C° 0 mm 3 mps 666 mmHg 25%
    06:00 +27°C° 0 mm 3 mps 667 mmHg 23%
    07:00 +28°C° 0 mm 4 mps 667 mmHg 21%
    08:00 +29°C° 0 mm 3 mps 667 mmHg 19%
    09:00 +31°C° 0 mm 3 mps 668 mmHg 17%
    10:00 +34°C° 0 mm 3 mps 668 mmHg 14%
    11:00 +34°C° 0 mm 2 mps 667 mmHg 14%
    12:00 +35°C° 0 mm 2 mps 666 mmHg 14%
    13:00 +35°C° 0 mm 2 mps 665 mmHg 14%
    14:00 +36°C° 0 mm 2 mps 665 mmHg 13%
    15:00 +37°C° 0 mm 2 mps 665 mmHg 13%
    16:00 +37°C° 0 mm 1 mps 665 mmHg 12%
    17:00 +35°C° 0 mm 1 mps 665 mmHg 14%
    18:00 +34°C° 0 mm 2 mps 665 mmHg 16%
    19:00 +31°C° 0 mm 2 mps 665 mmHg 17%
    20:00 +31°C° 0 mm 2 mps 665 mmHg 19%
    21:00 +30°C° 0 mm 2 mps 666 mmHg 22%
    22:00 +29°C° 0 mm 2 mps 666 mmHg 24%
    23:00 +28°C° 0 mm 3 mps 666 mmHg 25%
    Show more